Skip Page Navigation
NASA JPL Caltech
NASA Logo - Jet Propulsion Laboratory + View the NASA Portal
+ Near-Earth Object (NEO) Program
Search JPL
JPL Home Earth Solar System Stars & Galaxies Technology
JPL Solar System Dynamics
BODIES ORBITS EPHEMERIDES TOOLS PHYSICAL DATA DISCOVERY FAQ SITE MAP
JPL Small-Body Database Browser
Search: [ help ]  
(2006 CF)
Classification: Apollo [NEO, PHA]          SPK-ID: 3315647
Ephemeris | Orbit Diagram | Orbital Elements | Physical Parameters | Close-Approach Data ]

[ hide orbit diagram ]
Orbit Diagram
Note: Make sure you have Java enabled on your browser to see the applet. This applet is provided as a 3D orbit visualization tool. The applet was implemented using 2-body methods, and hence should not be used for determining accurate long-term trajectories (over several years or decades) or planetary encounter circumstances. For accurate long-term ephemerides, please instead use our Horizons system.
Orbit Viewer

Additional Notes: the orbits shown in the applet are color coded. The planets are white lines, and the asteroid/comet is a blue line. The bright white line indicates the portion of the orbit that is above the ecliptic plane, and the darker portion is below the ecliptic plane. Likewise for the asteroid/comet orbit, the light blue indicates the portion above the ecliptic plane, and the dark blue the portion below the ecliptic plane.

Orbit Viewer applet originally written and kindly provided by Osamu Ajiki (AstroArts), and further modified by Ron Baalke (JPL).


Orbital Elements at Epoch 2456400.5 (2013-Apr-18.0) TDB
Reference: JPL 29 (heliocentric ecliptic J2000)
 Element Value Uncertainty (1-sigma)   Units 
e .6823628569642505 6.5461e-08  
a 2.288391854926605 3.7826e-08 AU
q .7268782509451661 1.5977e-07 AU
i 4.662558384856157 1.7128e-05 deg
node 112.850779352308 4.3393e-05 deg
peri 267.6768493297691 4.7199e-05 deg
M 62.28538306473094 1.2111e-06 deg
tp 2456181.735093201686
(2012-Sep-11.23509320)
4.9632e-06 JED
period 1264.427744877884
3.46
3.1351e-05
8.583e-08
d
yr
n .2847137778005401 7.0593e-09 deg/d
Q 3.849905458908044 6.3637e-08 AU
  Orbit Determination Parameters
   # obs. used (total)      196  
   # delay obs. used      2  
   # Doppler obs. used      1  
   data-arc span      4920 days (13.47 yr)  
   first obs. used      1999-02-06  
   last obs. used      2012-07-27  
   planetary ephem.      DE405  
   SB-pert. ephem.      SB405-CPV-2  
   condition code      0  
   fit RMS      .38257  
   data source      ORB  
   producer      OSOD/JPL  
   solution date      2012-Jul-27 11:26:40  

Additional Information
 Earth MOID = .021426 AU 
 T_jup = 3.240 
[ show covariance matrix ]

Ephemeris | Orbit Diagram | Orbital Elements | Physical Parameters | Close-Approach Data ]

Physical Parameter Table
Parameter Symbol Value Units Sigma Reference Notes
absolute magnitude H 20.452 mag .62064 19 autocmod 2.5b

[ show close-approach data ]
Alternate Designations
 2006 CF = 1999 CK129 
Ephemeris | Orbit Diagram | Orbital Elements | Physical Parameters | Close-Approach Data ]
ABOUT SSD CREDITS/AWARDS PRIVACY/COPYRIGHT GLOSSARY LINKS
FirstGov 2013-May-20 05:27 UT
(server date/time)  
NASA Home Page
Site Manager:   Donald K. Yeomans
Webmaster  Alan B. Chamberlin